Location: Rio Negrinho
(26.2394°S, 49.4999°W)
Time: 18:19:41
(UTC+00:00)

Hubble Space Telescope - Pass Details

Date: 29 July 2021
Orbit: 535 x 539 km, 28.5° (Epoch: 22 September)

Event Time Altitude Azimuth Distance (km) Brightness Sun altitude
Exits shadow 09:20:55 10° 276° (W) 1,822 2.9 -8.9°
Reaches altitude 10° 09:21:00 10° 276° (W) 1,791 2.9 -8.9°
Maximum altitude 09:25:09 76° 189° (S) 558 0.8 -8.0°
Drops below altitude 10° 09:29:19 10° 103° (ESE) 1,798 4.5 -7.1°
Sets 09:31:35 0° 101° (E) 2,691 5.6 -6.6°
